• Join FlightAware (Why Join?)
  • Login
  • US Flag 
03:11PM EST


 

Airport Tracker/Info


-or-


 

Live Flight TrackerFlight Track Log ✈ JZA7651 ✈ 16-Jun-2013 ✈ KDCA - CYUL

Flight Track Log - Related Links

Times and Time Zones

All times are in EDT time to prevent confusion due to time zone crossing. See the JZA7651 flight status page for this flight to view local times or setup timezone preferences in your user account.

Time Position Orientation Groundspeed Altitude Reporting Facility
EDT Latitude Longitude Course Direction KTS MPH feet Rate Location/Type
09:58PM 38.8667 -77.0500 342° North 147 169 1,300  Level Potomac TRACON
09:59PM 38.9000 -77.0833 322° Northwest 166 191 3,400 2,000 Climbing Potomac TRACON
10:00PM 38.9500 -77.1333 322° Northwest 228 262 5,300 2,316 Climbing Potomac TRACON
10:02PM 39.3344 -77.2894 337° Northwest  Level FlightAware Approximate
10:02PM 39.0183 -77.2747 302° West 253 291 10,000  Level Washington Center
10:03PM 39.4579 -77.3517 330° Northwest  Level FlightAware Approximate
10:03PM 39.0461 -77.3717 290° West 269 310 12,400  Level Washington Center
10:04PM 39.5803 -77.4177 342° North  Level FlightAware Approximate
10:04PM 39.0928 -77.4503 307° West 277 319 14,600  Level Washington Center
10:05PM 39.1803 -77.4525 359° North 259 298 16,500 1,850 Climbing Washington Center
10:06PM 39.2678 -77.4547 359° North 285 328 18,300 1,483 Climbing Washington Center
10:08PM 39.4383 -77.4544 360° North 325 374 20,800 1,310 Climbing New York Center
10:09PM 39.5319 -77.4550 360° North 336 387 22,100 1,250 Climbing New York Center
10:10PM 39.6300 -77.4564 359° North 341 392 23,300 1,240 Climbing New York Center
10:11PM 39.7281 -77.4547 North 353 406 24,600 1,119 Climbing New York Center
10:12PM 39.8297 -77.4294 11° North 353 406 25,500 974 Climbing New York Center
10:13PM 39.9314 -77.3983 13° North 359 413 26,500 885 Climbing New York Center
10:14PM 40.0378 -77.3625 14° North 373 429 27,300 885 Climbing New York Center
10:15PM 40.1608 -77.3250 13° North 384 442 28,300 900 Climbing New York Center
10:16PM 40.2689 -77.2917 13° North 402 463 29,100 700 Climbing New York Center
10:17PM 40.3772 -77.2583 13° North 402 463 29,700 595 Climbing New York Center
10:18PM 40.4917 -77.2228 13° North 408 470 30,300 712 Climbing New York Center
10:19PM 40.6061 -77.1869 13° North 408 470 31,100 756 Climbing New York Center
10:20PM 40.7206 -77.1511 13° North 413 475 31,800 541 Climbing New York Center
10:21PM 40.8394 -77.1128 14° North 424 488 32,200 450 Climbing New York Center
10:22PM 40.9558 -77.0769 13° North 424 488 32,700 400 Climbing New York Center
10:23PM 41.0725 -77.0383 14° North 424 488 33,000 150 Climbing New York Center
10:24PM 41.1911 -77.0022 13° North 424 488 33,000  Level New York Center
10:25PM 41.3164 -76.9614 14° North 438 504 33,000  Level New York Center
10:26PM 41.4433 -76.9206 14° North 451 519 33,000  Level New York Center
10:27PM 41.5706 -76.8767 14° North 465 535 33,000  Level New York Center
10:28PM 41.7000 -76.8328 14° North 465 535 33,000  Level New York Center
10:30PM 41.9408 -76.7558 13° North 478 550 33,000  Level Boston Center
10:31PM 42.0422 -76.7233 13° North 508 585 33,000  Level Boston Center
10:32PM 42.1900 -76.6719 14° North 494 568 33,000  Level Boston Center
10:33PM 42.3231 -76.6303 13° North 494 568 33,000  Level Boston Center
10:34PM 42.4561 -76.5831 15° North 494 568 33,000  Level Boston Center
10:35PM 42.5889 -76.5411 13° North 494 568 33,000  Level Boston Center
10:36PM 42.7242 -76.4936 14° North 494 568 33,000  Level Boston Center
10:37PM 42.8592 -76.4486 14° North 494 568 33,000  Level Boston Center
10:38PM 42.9922 -76.4033 14° North 494 568 33,000  Level Boston Center
10:39PM 43.1800 -76.3386 14° North 494 568 33,000  Level Boston Center
10:40PM 43.3128 -76.2956 13° North 494 568 33,000 -450 Level Boston Center
10:41PM 43.4458 -76.2469 15° North 494 568 32,100 -950 Descending Boston Center
10:42PM 43.5847 -76.2011 13° North 494 568 31,100 -1,000 Descending Boston Center
10:43PM 43.7200 -76.1519 15° North 494 568 30,100 -900 Descending Boston Center
10:44PM 43.8400 -76.1078 15° North 494 568 29,300 -900 Descending Boston Center
10:45PM 43.9733 -76.0494 17° North 494 568 28,300 -650 Descending Boston Center
10:46PM 44.0911 -75.9467 32° Northeast 494 568 28,000 -150 Descending Boston Center
10:47PM 44.2003 -75.8489 33° Northeast 482 555 28,000  Level Boston Center
10:48PM 44.3058 -75.7331 38° Northeast 477 549 28,000 -750 Level Boston Center
10:49PM 44.3992 -75.5986 46° Northeast 472 543 26,500 -1,850 Descending Boston Center
10:50PM 44.4906 -75.4581 48° Northeast 477 549 24,300 -2,400 Descending Boston Center
10:51PM 44.5736 -75.3078 52° Northeast 477 549 21,700 -2,550 Descending Boston Center
10:52PM 44.6497 -75.1714 52° Northeast 472 543 19,200 -2,779 Descending Boston Center
10:53PM 44.6833 -75.0667 66° East 440 506 17,300 -2,526 Descending Montreal Center
10:54PM 44.7500 -74.9500 51° Northeast 420 483 15,200 -2,100 Descending Montreal Center
10:55PM 44.8333 -74.8167 49° Northeast 400 460 13,100 -1,950 Descending Montreal Center
10:56PM 44.9000 -74.7167 47° Northeast 390 449 11,300 -1,600 Descending Montreal Center
10:57PM 44.9333 -74.5667 73° East 350 403 9,900 -1,500 Descending Montreal Center
10:58PM 44.9667 -74.4833 60° Northeast 310 357 8,300 -950 Descending Montreal Center
10:59PM 45.0333 -74.3833 47° Northeast 300 345 8,000 -150 Descending Montreal Center
11:00PM 45.0833 -74.3000 50° Northeast 300 345 8,000 -50 Level Montreal Center
11:01PM 45.1333 -74.2167 50° Northeast 290 334 7,900 -850 Descending Montreal Center
11:02PM 45.2000 -74.1333 41° Northeast 290 334 6,300 -1,550 Descending Montreal Center
11:03PM 45.2333 -74.0333 65° Northeast 280 322 4,800 -1,500 Descending Montreal Center
11:04PM 45.2833 -73.9667 43° Northeast 260 299 3,300 -850 Descending Montreal Center
11:05PM 45.3333 -73.9000 43° Northeast 220 253 3,100 -600 Descending Montreal Center
11:06PM 45.3667 -73.8500 46° Northeast 210 242 2,100 -950 Descending Montreal Center
11:07PM 45.4167 -73.8000 35° Northeast 160 184 1,200 -800 Descending Montreal Center
11:08PM 45.4333 -73.7667 55° Northeast 140 161 500 -550 Descending Montreal Center
11:09PM 45.4667 -73.7500 19° North 20 23 100 -400 Descending Montreal Center